TimePST,TemperatureF,Dew PointF,Humidity,Sea Level PressureIn,VisibilityMPH,Wind Direction,Wind SpeedMPH,Gust SpeedMPH,PrecipitationIn,Events,Conditions,WindDirDegrees,DateUTC
12:58 AM,46.0,23.0,40,30.20,10.0,NE,4.6,-,N/A,,Clear,50,2012-11-24 08:58:00
1:58 AM,43.5,22.5,43,30.19,10.0,Calm,Calm,-,N/A,,Clear,0,2012-11-24 09:58:00
2:58 AM,42.4,22.1,44,30.19,10.0,Calm,Calm,-,N/A,,Clear,0,2012-11-24 10:58:00
3:58 AM,43.7,22.8,44,30.18,10.0,NE,2.3,-,N/A,,Clear,40,2012-11-24 11:58:00
4:58 AM,43.0,22.1,44,30.20,10.0,Calm,Calm,-,N/A,,Clear,360,2012-11-24 12:58:00
5:58 AM,38.7,22.5,52,30.22,10.0,Calm,Calm,-,N/A,,Clear,70,2012-11-24 13:58:00
6:58 AM,42.1,21.9,45,30.22,10.0,WNW,4.6,-,N/A,,Clear,290,2012-11-24 14:58:00
7:58 AM,43.0,23.9,47,30.23,10.0,Calm,Calm,-,N/A,,Clear,0,2012-11-24 15:58:00
8:58 AM,50.5,25.0,37,30.22,10.0,Calm,Calm,-,N/A,,Clear,360,2012-11-24 16:58:00
9:58 AM,56.1,24.3,29,30.21,10.0,SSW,3.5,-,N/A,,Clear,210,2012-11-24 17:58:00
10:58 AM,61.2,25.0,25,30.18,10.0,SW,4.6,-,N/A,,Clear,220,2012-11-24 18:58:00
11:58 AM,65.8,23.7,20,30.12,10.0,SW,1.2,-,N/A,,Clear,220,2012-11-24 19:58:00
12:58 PM,69.1,23.5,18,30.09,10.0,Variable,1.2,-,N/A,,Clear,0,2012-11-24 20:58:00
1:58 PM,70.7,22.8,16,30.05,10.0,WSW,1.2,-,N/A,,Clear,250,2012-11-24 21:58:00
2:58 PM,73.0,21.9,15,30.04,10.0,Calm,Calm,-,N/A,,Clear,350,2012-11-24 22:58:00
3:58 PM,69.8,22.8,17,30.02,10.0,SW,3.5,-,N/A,,Clear,230,2012-11-24 23:58:00
4:58 PM,67.3,24.4,20,30.03,10.0,SW,2.3,-,N/A,,Clear,220,2012-11-25 00:58:00
5:58 PM,58.1,24.6,28,30.03,10.0,NNE,4.6,-,N/A,,Clear,20,2012-11-25 01:58:00
6:58 PM,54.3,24.1,31,30.03,10.0,NE,2.3,-,N/A,,Clear,40,2012-11-25 02:58:00
7:58 PM,51.3,23.4,34,30.03,10.0,East,2.3,-,N/A,,Clear,100,2012-11-25 03:58:00
8:58 PM,51.1,23.2,34,30.03,10.0,NE,3.5,-,N/A,,Clear,50,2012-11-25 04:58:00
9:58 PM,48.9,22.3,35,30.02,10.0,NW,3.5,-,N/A,,Clear,320,2012-11-25 05:58:00
10:58 PM,46.8,22.5,38,30.01,10.0,ENE,2.3,-,N/A,,Clear,60,2012-11-25 06:58:00
11:58 PM,46.2,22.1,39,29.99,10.0,NNE,1.2,-,N/A,,Clear,20,2012-11-25 07:58:00